Location: SBMNH
(34.4407°N, 119.7157°W)
Time: 21:21:28
(UTC-07:00)

X-37B - Pass Details

Date: 24 August 2022
Orbit: 329 x 342 km, 45.0° (Epoch: 29 September)

Event Time Altitude Azimuth Distance (km) Brightness Sun altitude
Rises 21:15:31 0° 293° (WNW) 2,086 5.9 -20.0°
Reaches altitude 10° 21:18:38 10° 332° (NNW) 1,254 4.0 -20.6°
Maximum altitude 21:19:34 11° 351° (N) 1,191 3.5 -20.8°
Drops below altitude 10° 21:20:30 10° 11° (N) 1,256 3.4 -20.9°
Enters shadow 21:20:45 - 15° (NNE) 1,292 3.4 -21.0°
